User: anonymous   Login
Location: Seminole
(32.7190°N, 102.6440°W)
Time: 22:58:33
(UTC-06:00)
Language:

Meteor 2-10 - Orbit

View from above orbital plane
View from above orbital plane
View from above satellite
View from above satellite

Ground track
Ground track

The orbit data is extracted from the following two-line orbital elements,

1 14452U 83109A   18053.47018088 +.00000021 +00000-0 +30766-5 0  9990
2 14452 081.1637 183.6884 0091195 015.6060 344.7897 14.26450584784421
Epoch (UTC): 22 February 2018 11:17:03
Eccentricity: 0.0091195
inclination: 81.1637°
perigee height: 738 km
apogee height: 869 km
right ascension of ascending node: 183.6884°
argument of perigee: 15.6060°
revolutions per day: 14.26450584
mean anomaly at epoch: 344.7897°
orbit number at epoch: 78442

The dashed part of the orbit path shows where the satellite is in the earth's shadow,  

DLR